This is the latest recevied weather packets stored in our database for station/object YF9UAG-16. If no packets are shown the sender has not sent any weather packets the latest 10 day(s).
| Time | Temp. | Humidity | Pressure | Rain* | Wind** | Luminosity | Snow |
|---|---|---|---|---|---|---|---|
| 1787405728 | 27.78° C | 82% | 1015.8 hPa | - | - | - | - |
| 1787404828 | 27.78° C | 79% | 1015.8 hPa | - | - | - | - |
| 1787403927 | 28.33° C | 77% | 1015.8 hPa | - | - | - | - |
| 1787403027 | 28.33° C | 74% | 1015.9 hPa | - | - | - | - |
| 1787402127 | 28.33° C | 76% | 1015.8 hPa | - | - | - | - |
| 1787401227 | 28.33° C | 72% | 1015.7 hPa | - | - | - | - |
| 1787400327 | 28.33° C | 72% | 1015.5 hPa | - | - | - | - |
| 1787399427 | 28.33° C | 71% | 1015.4 hPa | - | - | - | - |
| 1787398527 | 28.33° C | 71% | 1015.2 hPa | - | - | - | - |
| 1787397627 | 28.33° C | 71% | 1014.9 hPa | - | - | - | - |
| 1787396727 | 28.33° C | 72% | 1014.8 hPa | - | - | - | - |
| 1787395827 | 28.33° C | 73% | 1014.7 hPa | - | - | - | - |
| 1787394927 | 28.33° C | 74% | 1014.5 hPa | - | - | - | - |
| 1787394027 | 28.33° C | 75% | 1014.4 hPa | - | - | - | - |
| 1787393127 | 28.33° C | 77% | 1014.2 hPa | - | - | - | - |
| 1787392227 | 28.33° C | 77% | 1014 hPa | - | - | - | - |
| 1787391327 | 28.33° C | 74% | 1013.8 hPa | - | - | - | - |
| 1787390427 | 28.33° C | 77% | 1013.5 hPa | - | - | - | - |
| 1787389527 | 28.33° C | 73% | 1013.2 hPa | - | - | - | - |
| 1787388627 | 28.33° C | 71% | 1013 hPa | - | - | - | - |
* Rain since midnight (hover to see other rain measurements)
** Current wind speed in m/s (hover to see current wind gust speed)